Flag for U.S.A. Weather past 2 weeks in St. Paul, Minnesota, U.S.A.

Now
81 °F

Partly sunny.


Feels Like: 81 °F
Forecast: 59 / 77 °F
Wind: 18 mph from Northwest

Location: St. Paul Downtown Holman Field

Current Time: Aug 2, 2015 at 7:35:51 PM

Latest Report: Aug 2, 2015 at 6:53 PM


Visibility: 10 mi

Pressure: 29.70 "Hg

Humidity: 44%

Dew point: 57 °F

Location of St. PaulLocation

Historic Weather in St. Paul — Graph

°F

St. Paul temperature yesterday

Maximum temperature yesterday: 86 °F (at 3:53 PM)
Minimum temperature yesterday: 64 °F (at 5:53 AM)
Average temperature yesterday: 76 °F

Past Weeks' High & Low Weather Summary

 TemperatureHumidityPressure
High87 °F (Jul 25, 4:53 PM)97% (Jul 28, 8:00 AM)30.05 "Hg (Jul 28, 8:00 AM)
Low60 °F (Jul 21, 5:53 AM)31% (Jul 31, 4:53 PM)29.60 "Hg (Aug 2, 10:53 AM)
Average75 °F65%29.89 "Hg
* Reported Jul 18 5:53 PM — Aug 2 5:53 PM, St. Paul, Weather by CustomWeather, © 2015

Note: Actual official high and low records may vary slightly from our data, if they occured in-between our weather recording intervals... More about our weather records

Advertising

St. Paul weather history for previous 24 hours

 ConditionsComfort  
Time TempWeatherWind HumidityBarometerVisibility
5:53 PM
Sun, Aug 2
82 °FPartly sunny.16 mph48%29.69 "Hg10 mi
4:53 PM83 °FPassing clouds.18 mph50%29.67 "Hg10 mi
3:53 PM84 °FPassing clouds.15 mph46%29.67 "Hg10 mi
2:53 PM83 °FBroken clouds.18 mph53%29.67 "Hg10 mi
1:53 PM81 °FScattered clouds.16 mph65%29.65 "Hg10 mi
12:53 PM83 °FPartly sunny.22 mph57%29.63 "Hg10 mi
11:53 AM82 °FSunny.17 mph58%29.62 "Hg10 mi
10:53 AM78 °FSunny.12 mph64%29.60 "Hg10 mi
9:53 AM78 °FSunny.13 mph64%29.62 "Hg10 mi
8:53 AM76 °FSunny.9 mph67%29.62 "Hg10 mi
7:53 AM73 °FSunny.5 mph74%29.64 "Hg10 mi
6:53 AM71 °FClear.7 mph78%29.64 "Hg10 mi
5:53 AM72 °FClear.14 mph73%29.65 "Hg10 mi
4:53 AM73 °FClear.10 mph74%29.61 "Hg10 mi
3:53 AM73 °FClear.3 mph76%29.67 "Hg10 mi
2:53 AM74 °FClear.10 mph74%29.68 "Hg10 mi
1:53 AM75 °FClear.12 mph71%29.70 "Hg10 mi
12:53 AM76 °FPassing clouds.14 mph69%29.73 "Hg10 mi
11:53 PM
Sat, Aug 1
76 °FPassing clouds.10 mph74%29.75 "Hg10 mi
10:53 PM76 °FPassing clouds.6 mph77%29.74 "Hg10 mi
9:53 PM76 °FClear.8 mph77%29.75 "Hg10 mi
8:53 PM77 °FSunny.6 mph71%29.76 "Hg10 mi
7:53 PM81 °FSunny.7 mph60%29.77 "Hg10 mi
Weather by CustomWeather, © 2015

See weather overviewHow to use our weather pages